Home   Weather   Kuwait City   Past weeks
Flag for Kuwait

Past Weather in Kuwait City, Kuwait — Yesterday and Last 2 Weeks

Now
106 °F

Sunny.


Feels Like: 101 °F
Forecast: 98 / 78 °F
Wind: 14 mph from Northwest

Location: Kuwait International Airport

Current Time: May 22, 2019 at 4:23:27 pm

Latest Report: May 22, 2019 at 4:00 pm


Visibility: 10 mi

Pressure: 29.77 "Hg

Humidity: 12%

Dew Point: 43 °F

Location of Kuwait CityLocation

Past Weather in Kuwait City — Graph

°F

Kuwait City Temperature Yesterday

Maximum temperature yesterday: 102 °F (at 1:00 pm)
Minimum temperature yesterday: 81 °F (at 6:00 am)
Average temperature yesterday: 90 °F

High & Low Weather Summary for the Past Weeks

 TemperatureHumidityPressure
High109 °F (May 14, 1:00 pm)84% (May 19, 3:00 am)29.95 "Hg (May 19, 3:00 am)
Low72 °F (May 14, 4:00 am)6% (May 14, 12:00 pm)29.59 "Hg (May 9, 4:00 pm)
Average90 °F31%29.74 "Hg
* Reported May 7 3:00 pm — May 22 3:00 pm, Kuwait City. Weather by CustomWeather, © 2019

Note: Actual official high and low records may vary slightly from our data, if they occured in-between our weather recording intervals... More about our weather records

Advertising

Kuwait City Weather History for the Previous 24 Hours

Scroll right to see more
 ConditionsComfort  
Time TempWeatherWind HumidityBarometerVisibility
3:00 pm
Wed, May 22
106 °FSunny.13 mph12%29.80 "Hg10 mi
2:00 pm106 °FSunny.15 mph12%29.80 "Hg10 mi
1:00 pm104 °FSunny.13 mph12%29.80 "Hg10 mi
12:00 pm104 °FSunny.9 mph13%29.83 "Hg10 mi
11:00 am102 °FSunny.9 mph14%29.86 "Hg5 mi
10:00 am100 °FSunny.12 mph17%29.86 "Hg5 mi
9:00 am99 °FSunny.10 mph21%29.86 "Hg5 mi
8:00 am93 °FSunny.6 mph26%29.86 "Hg5 mi
7:00 am86 °FSunny.5 mph38%29.86 "Hg10 mi
6:00 am81 °FSunny.5 mph48%29.86 "Hg10 mi
5:00 am79 °FSunny.No wind48%29.83 "Hg10 mi
4:00 am82 °FClear.7 mph37%29.83 "Hg10 mi
3:00 am88 °FClear.7 mph29%29.83 "Hg10 mi
2:00 am84 °FClear.3 mph33%29.83 "Hg10 mi
1:00 am86 °FPassing clouds.No wind31%29.80 "HgN/A
12:00 am90 °FPassing clouds.16 mph26%29.83 "HgN/A
11:00 pm
Tue, May 21
90 °FPassing clouds.22 mph27%29.86 "HgN/A
10:00 pm86 °FThunderstorms. Passing clouds.25 mph35%29.92 "Hg4 mi
9:00 pm86 °FPassing clouds.10 mph35%29.83 "HgN/A
8:00 pm88 °FPassing clouds.15 mph33%29.80 "HgN/A
7:00 pm86 °FThundershowers. Partly cloudy.9 mph35%29.80 "HgN/A
6:00 pm93 °FThunderstorms. Broken clouds.13 mph34%29.83 "Hg5 mi
5:18 pm93 °FThundershowers. Partly sunny.12 mph26%29.80 "Hg5 mi
5:00 pm95 °FClear.16 mph26%29.77 "Hg5 mi
4:00 pm97 °FClear.15 mph25%29.77 "Hg5 mi
Weather by CustomWeather, © 2019

See weather overview